Powrót do katalogu

STARLINK-37830

AktywnyŁącznośćSSO
NORAD 69664·PAYLOAD·🇺🇸 United States

Wystrzelony Jun 21, 2026 z Vandenberg Space Force Base

Loading…

Następne Przeloty (najbliższe 24 godziny)

TLE

ŚwieżeSource: CelesTrak SupGP

Epoka: Sep 15, 2026, 04:30 UTC

1 69664C 26143R   26258.18798611 -.00050881  00000+0 -15796-2 0  2582
2 69664  97.2840 301.3908 0001132  90.8299 294.6160 15.33461762    18

Śledź STARLINK-37830 w czasie rzeczywistym z AllMySat

Download on the App Store